User: anonymous   Login
Location: Appeville
(49.3218°N, 1.3427°W)
Time: 06:58:22
(UTC+00:00)
Language:

CZ-4C R/B - Orbit

View from above orbital plane
View from above orbital plane
View from above satellite
View from above satellite

Ground track
Ground track

The orbit data is extracted from the following two-line orbital elements,

1 36416U 10009D   20050.03206710 -.00000085  00000-0  10621-4 0  9994
2 36416  63.4269 161.9409 0483260 355.2441   4.4088 13.69563910498153
Epoch (UTC): 19 February 2020 00:46:10
Eccentricity: 0.0483260
inclination: 63.4269°
perigee height: 644 km
apogee height: 1358 km
right ascension of ascending node: 161.9409°
argument of perigee: 355.2441°
revolutions per day: 13.69563910
mean anomaly at epoch: 4.4088°
orbit number at epoch: 49815

The dashed part of the orbit path shows where the satellite is in the earth's shadow,  

DLR